Probability
0 0 0 0 0 0 0 0 0 0 1 3 2 1 2 5 8 9 13 15 16 19 23 26 26 27 29 26 22 21 21 21 21 18 14 12 11 9 6 5 5 4 3 2
0 0 0 0 0 0 0 0 0 1 2 3 2 1 1 5 7 10 13 16 19 24 27 27 26 28 30 27 23 21 21 20 19 16 12 10 8 6 4 3 3 2 2 2
0 0 0 0 0 0 0 0 0 1 2 3 2 1 1 4 8 11 13 18 25 29 29 28 27 29 30 28 25 22 21 20 19 15 12 9 6 3 2 1 1 0 0 1
0 0 0 0 0 0 0 0 0 1 2 3 2 1 1 4 9 12 14 20 27 28 26 26 27 29 29 28 26 24 23 22 19 16 15 13 8 4 2 0 0 0 0 0
0 0 0 0 0 0 0 0 0 0 1 1 1 1 2 5 9 12 15 20 25 24 23 24 25 26 26 26 24 24 24 23 19 17 17 15 11 6 2 0 0 0 0 1
0 0 0 0 0 0 0 0 0 0 0 0 0 1 2 4 7 10 14 19 21 21 21 23 24 24 25 24 22 22 23 22 20 19 18 15 12 8 4 1 0 1 2 3
0 0 0 0 0 0 0 0 0 0 0 0 0 0 1 2 4 8 14 17 18 17 19 21 23 25 25 24 23 21 21 22 22 20 17 14 12 9 6 3 2 3 5 5
0 0 0 0 0 0 0 0 0 0 0 0 0 0 0 1 3 8 13 15 15 14 15 18 20 22 23 23 23 22 22 23 22 20 17 14 12 10 8 6 5 6 6 6
0 0 0 0 0 0 0 0 0 0 0 0 0 0 0 2 5 8 11 11 11 12 13 14 16 17 17 18 20 21 21 21 20 19 16 14 12 10 9 8 8 7 7 6
0 0 0 0 0 0 0 0 0 0 0 0 0 0 1 5 8 9 9 8 7 8 9 9 10 11 12 13 15 17 19 20 19 17 15 13 12 11 10 10 9 9 7 7
0 0 0 0 0 0 0 0 0 0 0 0 0 0 3 8 12 12 10 8 6 5 6 6 7 8 9 10 12 14 16 17 17 16 14 13 13 12 10 10 10 9 9 8
0 0 0 0 0 0 0 0 0 0 0 0 0 2 6 12 13 12 11 10 7 6 6 7 8 9 9 9 11 13 15 16 16 15 14 13 13 12 11 9 9 9 9 9
0 0 0 0 0 0 0 0 0 0 0 0 1 4 9 13 12 10 10 11 9 8 9 10 9 9 10 10 11 14 15 15 15 15 14 13 13 11 9 7 7 7 8 8
0 0 0 0 0 1 1 1 1 0 0 1 2 5 10 12 11 9 9 10 9 8 9 10 8 8 8 9 11 13 13 13 15 16 15 14 12 10 7 4 3 4 5 5
0 0 0 0 1 2 2 3 2 1 1 2 4 7 10 12 11 10 9 8 6 6 8 9 7 6 7 7 9 11 11 11 13 15 15 14 11 8 5 3 2 3 3 3
0 0 0 0 1 2 3 3 3 2 2 3 4 6 10 12 12 11 9 8 5 5 8 9 8 7 7 7 8 9 9 9 10 12 13 12 9 5 4 3 4 4 3 2
0 0 0 0 0 1 1 2 3 2 2 2 2 4 9 13 12 10 9 8 6 6 8 10 10 9 9 8 7 7 8 7 8 9 10 9 6 4 4 4 4 4 3 3
0 0 0 0 0 0 1 1 2 2 2 1 1 3 9 13 12 10 8 7 7 8 9 10 10 9 9 8 7 6 6 6 6 6 7 7 5 4 4 4 4 3 3 3
0 0 0 0 1 1 1 1 1 1 1 2 4 6 10 14 13 9 5 5 7 9 9 9 8 7 7 7 6 6 6 6 6 5 5 6 6 5 5 4 3 3 3 3
0 0 0 0 1 1 1 1 1 0 1 3 6 9 12 14 12 8 5 4 6 8 8 7 7 6 5 4 5 6 6 6 5 4 5 6 7 6 5 4 4 4 3 2
0 0 0 0 0 1 1 2 2 1 0 3 7 11 13 13 10 6 6 6 7 7 7 6 6 5 4 3 4 5 6 5 4 4 4 5 5 5 5 5 5 5 3 2
0 0 0 0 0 1 2 2 2 2 1 2 6 10 11 10 7 6 7 7 7 8 7 6 4 3 3 3 3 4 4 3 2 3 4 4 4 4 5 6 5 4 3 3
0 0 0 0 0 0 1 1 1 1 2 3 4 6 7 7 6 6 8 8 8 8 6 4 3 3 3 3 3 3 3 2 1 2 3 3 3 3 4 4 4 3 3 3
0 0 0 0 0 0 0 0 0 0 2 3 4 5 6 6 6 7 10 9 8 7 5 4 3 3 3 3 3 3 2 1 1 1 2 2 3 3 2 2 3 3 3 3
0 0 0 0 0 0 0 0 0 0 1 3 5 6 6 7 8 9 10 9 7 6 5 4 3 3 3 3 2 2 2 2 2 1 1 2 2 2 1 1 2 2 3 3
0 0 0 0 0 0 0 0 0 0 1 2 4 6 6 6 8 9 10 9 7 6 6 5 4 3 3 2 1 1 2 3 2 1 0 1 1 1 1 1 1 1 2 3
Wind_Speed
3 3 6 9 8 7 5 5 6 7 4 2 5 7 7 6 6 7 7 8 8 8 6 6 8 9 8 7 6 6 6 4 3 3 2 2 2 1 1 2 3 4 3 3
1 7 11 8 7 6 6 7 7 6 3 2 4 6 6 6 7 9 10 10 9 8 6 6 6 7 7 7 7 6 6 5 4 3 2 2 2 1 1 1 2 3 3 3
9 8 7 7 7 7 8 8 7 6 4 2 0 3 3 3 2 4 7 8 9 11 11 8 7 6 7 7 7 6 6 5 4 3 2 2 2 2 1 1 1 2 3 3
7 9 7 7 8 8 8 8 7 5 2 3 2 3 6 3 1 2 4 6 8 9 9 8 8 7 7 6 5 5 5 4 4 4 4 5 3 2 2 1 1 1 2 2
7 5 7 9 10 9 9 7 5 4 3 1 1 3 6 1 3 5 6 7 9 10 9 9 8 8 7 6 5 4 4 4 3 4 5 5 3 2 1 1 1 1 1 1
9 6 6 8 8 8 6 1 2 3 3 2 5 4 5 5 8 7 6 7 9 10 10 8 7 7 6 5 5 5 5 4 4 4 4 5 5 4 3 2 2 1 1 1
7 8 7 4 4 5 2 4 2 3 2 6 4 4 8 8 8 10 10 9 8 10 10 8 7 7 6 7 6 5 6 4 4 4 4 4 5 5 4 3 3 2 1 1
5 8 7 5 6 6 4 9 8 5 5 4 2 5 7 7 6 7 9 10 9 9 8 9 8 8 7 7 7 6 6 5 4 4 4 3 3 3 3 3 3 2 2 2
6 7 6 5 4 7 5 4 8 7 2 1 3 3 5 2 2 5 7 9 9 9 8 8 7 7 7 7 6 6 6 5 5 4 3 3 3 3 3 3 2 2 1 2
7 5 5 4 1 2 7 6 5 5 4 3 4 4 5 4 5 5 7 8 8 7 8 7 7 7 6 6 5 5 5 5 4 5 4 3 3 3 3 3 2 2 2 2
5 5 4 1 3 4 1 2 4 4 6 6 3 6 5 9 8 8 8 8 9 8 8 7 5 5 5 5 5 5 5 4 4 4 4 4 4 3 3 3 2 2 2 2
3 5 3 5 4 3 4 5 6 6 4 4 4 7 4 6 6 7 8 7 7 7 7 7 6 5 5 5 4 4 4 4 4 4 4 4 3 3 3 2 2 3 3 2
3 5 1 4 5 3 1 2 4 6 5 4 4 5 1 3 3 5 7 7 7 7 7 6 6 5 5 5 5 4 4 4 4 4 5 4 4 3 3 3 2 3 3 3
4 4 6 8 6 3 1 1 2 5 4 4 6 5 3 4 5 5 6 7 7 7 7 6 5 5 5 5 5 5 4 4 4 5 5 4 4 4 3 3 3 3 3 3
5 3 2 4 4 3 2 2 0 3 6 6 6 7 7 7 8 7 7 8 8 7 7 7 6 5 5 5 5 5 5 4 4 4 4 4 3 3 3 3 3 3 3 4
3 3 1 1 1 1 1 2 1 1 3 5 5 4 3 6 5 6 7 9 9 8 8 6 6 7 6 5 5 5 5 4 4 4 4 3 4 4 4 4 3 3 3 3
2 4 3 2 2 2 2 3 3 1 2 5 5 5 5 6 7 8 8 9 9 9 8 7 7 7 6 6 6 6 6 5 4 3 3 4 4 4 3 4 4 4 3 3
5 4 3 2 1 3 5 2 3 3 1 1 3 4 8 8 7 6 7 8 8 8 7 6 5 5 5 4 5 5 5 5 5 4 3 3 4 3 3 4 3 3 3 3
6 6 4 3 2 2 2 1 1 3 0 1 4 4 5 6 6 2 2 5 7 8 7 6 5 5 5 5 5 6 5 4 4 4 3 3 4 4 4 4 3 3 3 3
4 5 5 3 3 4 4 4 2 4 1 1 4 5 7 7 4 4 3 3 4 4 5 5 5 4 5 5 5 6 5 4 4 4 4 3 4 5 4 4 3 3 3 3
3 3 3 3 3 3 4 5 3 3 5 2 3 6 6 5 5 5 4 3 5 5 5 6 5 4 4 4 5 5 4 4 3 3 3 3 3 4 5 4 3 3 3 3
3 3 3 3 3 5 4 3 3 3 2 1 2 4 4 4 4 5 6 6 6 5 4 5 5 3 3 4 5 5 4 3 3 3 3 3 3 4 4 4 3 3 4 3
2 2 3 3 4 2 1 2 1 2 2 0 1 2 4 5 5 5 6 6 5 6 4 4 5 4 2 3 4 5 3 3 3 3 3 3 3 2 3 4 4 3 3 3
2 1 3 3 1 1 2 3 3 3 2 1 2 2 4 5 6 5 5 5 4 4 4 4 5 4 3 2 3 4 4 4 4 4 3 3 3 2 2 2 3 3 3 3
2 2 2 2 0 3 4 3 3 4 4 3 2 2 4 6 6 5 5 5 4 4 4 5 5 5 4 3 3 3 4 5 5 4 3 3 2 3 2 2 2 3 3 5
1 1 3 3 3 2 2 2 2 3 3 2 2 3 2 4 5 4 5 4 5 5 4 4 4 4 4 3 3 3 3 5 5 4 3 2 2 2 2 2 1 2 1 4
Wind_Direction
214 145 220 225 208 205 233 252 261 264 259 190 224 230 224 196 174 179 175 170 165 160 164 156 148 144 140 142 144 149 147 153 148 148 152 144 150 149 149 158 152 151 157 166
327 242 231 227 233 228 239 251 265 280 269 205 229 242 224 197 186 180 175 176 170 156 149 147 144 143 147 152 153 154 154 162 168 171 169 160 154 144 141 150 150 154 155 166
210 238 222 221 241 234 242 230 233 238 285 319 125 307 263 238 171 165 161 161 160 161 160 154 147 148 149 153 161 162 165 168 172 159 135 115 82 71 73 93 129 168 162 165
237 241 234 230 236 218 244 239 224 214 168 261 178 230 266 229 207 170 168 158 158 156 152 151 148 149 154 159 155 151 157 162 160 147 145 146 145 154 183 162 156 170 158 158
243 224 218 230 233 218 230 237 221 211 185 235 297 177 265 246 213 199 192 171 161 157 154 158 160 162 161 159 153 147 141 144 147 147 151 147 143 152 141 127 126 141 146 160
247 252 220 225 240 228 222 247 351 48 89 233 235 175 254 227 212 197 186 168 161 155 159 163 166 155 152 151 148 145 143 139 140 140 148 153 152 145 138 147 158 168 170 174
271 272 262 239 255 276 161 107 29 350 6 244 229 180 234 229 208 189 174 164 157 157 161 161 157 152 157 159 156 154 147 142 144 137 144 154 153 156 163 171 172 168 164 178
215 262 256 236 203 213 213 149 162 194 217 261 269 221 249 249 216 179 162 155 152 156 160 163 162 159 164 164 160 157 153 149 153 151 155 152 155 162 169 173 170 169 172 183
195 242 254 239 211 177 198 194 172 146 185 215 263 270 312 337 133 145 153 150 154 159 159 159 157 157 160 164 165 165 161 158 164 164 149 147 162 166 167 168 155 157 166 172
182 229 263 256 257 224 181 168 106 121 163 237 264 243 222 196 172 157 158 158 158 153 150 153 154 156 161 163 165 164 161 170 168 159 158 156 166 164 164 156 152 156 165 157
180 189 273 288 187 209 121 115 123 137 160 167 226 262 230 185 177 169 165 154 154 148 150 154 156 153 153 153 158 161 162 159 153 153 154 150 155 149 140 142 152 149 144 144
179 148 230 249 245 192 170 176 151 157 203 170 176 262 281 168 166 156 149 146 147 142 140 141 144 139 136 145 156 161 163 161 160 158 148 150 143 133 128 134 135 125 124 119
149 125 134 325 328 2 89 168 158 148 141 163 170 251 358 120 126 141 141 143 145 136 129 129 135 140 142 148 150 151 158 162 151 145 142 141 139 136 140 141 129 117 115 109
119 121 162 195 215 202 241 266 138 126 152 189 199 201 190 160 154 154 146 146 140 139 138 138 141 143 142 145 149 149 147 147 147 144 142 149 158 155 154 143 124 117 113 110
98 141 188 208 199 167 207 252 192 151 178 180 201 192 197 184 173 167 152 140 136 144 145 151 154 152 150 145 147 145 141 136 137 142 146 162 161 148 140 129 121 111 106 111
91 131 132 289 228 174 257 256 255 209 190 179 173 211 186 150 127 133 145 144 148 156 158 159 157 154 156 155 149 140 138 134 125 137 150 151 145 143 139 138 126 114 107 109
122 120 117 244 265 21 285 252 197 185 217 175 191 207 145 135 149 160 159 158 167 167 166 167 167 164 166 164 150 145 141 131 126 131 134 140 143 139 138 135 127 127 126 114
148 129 135 173 121 213 239 245 128 130 58 132 132 145 146 156 164 164 160 156 161 161 162 164 165 166 162 149 139 140 134 132 135 135 140 144 143 142 137 126 132 132 124 120
153 138 127 135 170 244 281 299 185 155 336 23 126 134 136 125 99 96 162 156 167 163 161 163 168 161 151 146 144 137 136 136 142 153 158 159 152 145 142 143 145 134 124 122
102 114 123 136 157 212 251 287 281 117 205 285 131 138 141 120 130 208 189 155 151 145 146 149 151 138 142 156 147 140 147 147 159 171 170 168 161 153 154 158 152 137 131 137
80 83 131 156 181 246 285 309 35 135 223 236 156 151 148 160 181 178 159 146 137 136 140 138 133 138 157 156 138 138 144 164 180 168 155 152 162 160 157 153 149 142 136 129
142 143 164 146 172 243 315 44 97 209 251 218 160 154 137 137 134 142 154 151 139 131 133 135 133 135 153 148 139 142 162 180 157 144 143 146 155 163 154 149 149 147 144 138
88 170 161 160 196 238 15 115 183 160 133 131 141 157 141 141 148 150 147 147 146 143 147 144 137 128 131 142 143 148 172 161 137 129 139 143 144 144 150 155 159 154 152 149
348 50 99 89 64 33 30 40 35 52 62 39 104 126 138 140 143 140 142 142 139 136 139 136 130 130 140 151 149 159 158 146 136 138 145 149 145 145 148 154 160 160 168 164
306 33 79 101 265 18 9 18 38 39 29 29 69 100 131 135 142 147 147 147 146 140 137 141 145 149 157 156 153 158 154 143 141 146 149 150 150 149 157 160 167 173 188 183
312 160 157 203 216 167 249 306 43 59 13 354 63 54 89 133 145 148 148 149 144 140 134 135 142 145 147 142 149 158 155 147 146 150 160 163 160 152 151 141 75 32 178 193